Regional Weather Roundup
Issued by NWS Portland, ME

Home | Current Version | Previous Version | Text Only | Print | Product List | Glossary On
Versions: 1 2 3 4 5 6 7 8 9 10 11 12 13 14 15 16 17 18 19 20 21 22 23 24 25 26 27 28 29 30 31 32 33 34 35 36 37 38 39 40 41 42 43 44 45 46 47 48 49 50
000
ASUS41 KGYX 290510
RWRGYX
WEATHER ROUNDUP FOR MAINE AND NEW HAMPSHIRE
NATIONAL WEATHER SERVICE GRAY ME
100 AM EDT THU SEP 29 2016

MEZ002-005-006-010-012-015-018-020-021-024-026-027-029-290600-
MAINE

CITY           SKY/WX    TMP DP  RH WIND       PRES   REMARKS
PORTLAND       MOCLDY    54  46  74 NE10      30.42S
SANFORD        CLOUDY    52  50  93 NE7       30.40F
BAR HARBOR     CLEAR    N/A N/A N/A N10       30.43F
WISCASSET      CLEAR     51  44  77 VRB3      30.44S
ROCKLAND       CLEAR     52  45  77 NE12G17   30.42S
FRYEBURG       CLOUDY    55  46  71 NE7       30.44S
LEWISTONAUBURN PTCLDY    54  46  74 N9        30.44S
AUGUSTA        CLEAR     50  44  80 N10       30.45S
WATERVILLE     CLEAR     48  44  86 N8        30.42F
BANGOR         CLEAR     48  42  80 NE10      30.46S
GREENVILLE       N/A     42  41  96 CALM      30.45S
MILLINOCKET    PTCLDY    46  40  79 NE6       30.51R
HOULTON        PTCLDY    39  38  96 CALM      30.49S
PRESQUE ISLE   CLOUDY    42  39  89 N7        30.53S
FRENCHVILLE    CLEAR     41  35  79 N5        30.52S
CARIBOU        CLOUDY    43  39  86 N6        30.52R
$$

NHZ002-005-008-009-011-012-014-290600-
NEW HAMPSHIRE

CITY           SKY/WX    TMP DP  RH WIND       PRES   REMARKS
PORTSMOUTH     MOCLDY    56  48  73 NE10      30.38S
ROCHESTER      PTCLDY    50  48  93 N5        30.39F
NASHUA         CLOUDY    52  50  93 NW6       30.40S
MANCHESTER     PTCLDY    53  48  83 NW3       30.39R
CONCORD        CLEAR     44  41  89 CALM      30.41S
LACONIA        CLOUDY    54  51  90 NE9       30.41F
PLYMOUTH       CLOUDY    56  47  71 E6        30.40F
BERLIN         CLOUDY    44  40  85 CALM      30.44S
WHITEFIELD     CLEAR     51  43  74 E7        30.42S
JAFFREY        CLOUDY    53  47  79 VRB5      30.40R
KEENE          CLOUDY    51  49  92 CALM      30.40R
LEBANON        CLOUDY    53  51  93 CALM      30.39S
MT WASHINGTON  MOCLDY    37  32  81 E9          N/A
$$

VTZ005-007-008-290600-
VERMONT

CITY           SKY/WX    TMP DP  RH WIND       PRES   REMARKS
ST JOHNSBURY     N/A     46  44  93 MISG      30.40S
MONTPELIER     CLEAR     48  45  89 S3        30.44S
BURLINGTON     PTCLDY    54  47  77 SE5       30.39R
$$

MAZ007-012-024-CTZ003-RIZ002-NYZ038-NYZ072-290600-
SOUTHERN NEW ENGLAND AND NY

CITY           SKY/WX    TMP DP  RH WIND       PRES   REMARKS
BOSTON         CLOUDY    58  52  80 NE21      30.35S
WORCESTER      CLOUDY    52  47  83 NE12      30.35S
NANTUCKET      CLOUDY    60  57  89 NE21G32   30.25S
PROVIDENCE     CLOUDY    59  53  80 NE12G21   30.32R
HARTFORD       CLOUDY    57  49  74 NE13      30.34R
ALBANY         CLOUDY    51  46  83 CALM      30.35S
NEW YORK CITY  LGT RAIN  60  57  89 NE20G26   30.25S
$$

ANZ081-ANZ082-ANZ150-NHZ014-MEZ023>029-290600-
COASTAL MARINE OBSERVATIONS

STATION/POSITION TIME  TEMP    WIND        PRES    WAVE
                       AIR SEA DIR/SP/G            HT/PER
                 (UTC) (F)     (DEG/KT/KT) (MB)    (FT/S)
MOUNT DESERT ROC 0500   52      10/ 19/ 21 1028.9S
MATINICUS ROCK   0400   54      40/ 22/ 26 1028.8R
ISLE OF SHOALS   0400   58      50/ 30/ 34 1027.4R
JEFFREYS LEDGE   0438      62                N/A     8/ 8
CASHES LEDGE BUO 0450   56 58   40/ 23/ 27 1027.5R   7/ 7
GEORGES BANK BUO 0350   65 63              1018.4    8/ 8
$$

.............KEY..............
   WCI - WIND CHILL
   TC  - TEMPERATURE IN CELSIUS
   VSB - VISIBILITY IN MILES
   HX  - HEAT INDEX
   FAIR- INDICATES FEW OR NO CLOUDS BELOW 12,000 FT, WITH NO
         SIGNIFICANT WEATHER AND/OR OBSTRUCTIONS TO VISIBILITY.






USA.gov is the U.S. government's official web portal to all federal, state and local government web resources and services.